Wetbulb
65.75 64.55 64.00 60.55 57.94 59.29 54.85 56.59 61.13 60.07 60.66 63.42 64.24 62.61 60.98 62.70 60.95 58.66 70.77 73.03 73.90 75.39 77.46 77.16 77.33 76.37 75.60 75.80 76.12 76.77 76.97 77.10 77.18 77.20 77.18 77.08 76.93 76.80 76.45 76.78 77.18 77.51 76.83 76.57 76.67 76.14 75.72 75.80 75.49
62.72 60.01 59.91 58.00 56.74 51.17 53.20 56.25 59.18 61.82 63.42 64.57 64.05 63.60 62.07 60.87 66.01 66.02 69.27 72.74 72.75 75.19 77.19 77.36 77.40 76.83 75.92 75.65 75.77 76.42 76.82 76.90 76.90 77.08 77.05 76.95 76.58 76.45 76.23 76.63 76.98 76.86 76.91 76.90 76.77 76.57 76.17 75.69 75.48
62.04 60.25 57.79 56.50 54.25 51.74 52.88 58.32 60.77 61.40 63.85 63.84 62.84 64.79 63.44 62.52 66.04 68.14 71.79 73.26 73.97 75.33 76.89 77.77 77.45 76.95 76.02 75.77 75.39 75.59 76.37 76.55 76.68 76.93 77.00 76.73 76.43 76.38 76.00 76.58 76.78 76.25 76.20 76.64 76.68 76.81 76.49 76.11 75.41
59.61 56.19 57.23 56.03 53.31 54.12 56.47 60.10 61.56 61.86 63.33 64.60 64.44 61.40 66.04 69.34 68.07 71.46 73.50 74.00 73.98 75.23 75.93 77.40 77.24 76.94 76.40 75.75 75.64 75.42 75.47 76.12 76.55 76.55 76.60 76.70 76.48 76.10 76.12 76.10 76.45 76.41 75.76 75.92 75.99 76.19 76.22 76.12 75.72
54.76 54.46 53.78 53.18 51.86 53.63 56.86 61.67 62.66 61.73 62.95 64.05 65.38 62.21 63.60 69.00 71.12 70.93 71.45 73.19 74.05 74.90 75.87 77.00 77.30 77.05 76.75 75.85 76.02 75.69 75.32 75.50 75.62 75.60 75.67 76.00 76.02 75.92 76.00 76.10 76.07 76.04 75.76 75.74 75.91 75.79 75.65 75.60 75.32
52.49 52.67 51.26 50.13 50.88 52.31 56.33 61.83 62.17 62.21 62.44 64.96 65.19 63.40 62.80 72.01 70.08 69.04 70.48 71.60 74.59 74.38 75.63 76.88 77.13 77.19 76.89 76.60 76.29 76.31 76.08 75.66 75.52 75.20 75.22 75.00 74.92 75.02 75.07 75.37 75.67 75.90 76.15 76.04 76.02 76.13 75.82 75.29 75.37
50.95 50.23 45.72 45.87 48.43 52.50 52.88 61.05 60.25 59.73 63.94 64.78 66.11 61.96 65.63 69.91 70.46 69.65 70.34 71.77 71.45 74.39 74.98 76.12 76.67 76.97 76.82 76.53 76.11 75.96 75.90 75.78 75.68 75.63 75.41 75.26 75.27 74.85 74.77 75.05 75.25 75.75 76.25 76.35 76.60 76.47 75.92 75.49 75.09
50.40 50.50 45.01 45.81 48.15 49.97 51.69 52.22 56.74 63.13 59.76 63.26 59.98 57.49 63.51 70.27 70.68 70.12 69.78 71.13 72.43 73.42 73.96 74.91 76.30 76.01 76.20 75.54 76.21 75.88 75.64 75.46 75.43 75.38 75.55 75.50 75.41 75.41 75.16 75.15 74.89 75.27 75.90 76.02 75.89 76.04 75.91 75.58 75.22
48.74 49.50 46.83 47.16 48.55 50.81 51.14 52.49 55.55 55.29 58.52 55.10 57.81 59.22 63.55 71.30 70.54 68.91 68.37 68.82 71.67 72.28 73.94 74.82 75.43 75.74 75.79 75.65 76.09 75.85 75.80 75.52 75.46 75.40 75.54 75.05 74.63 74.60 74.66 74.93 75.01 75.14 75.52 76.19 75.96 75.66 75.44 75.33 75.20
50.20 49.89 47.45 49.44 50.04 50.53 50.90 51.46 51.44 53.82 54.03 54.46 57.39 65.78 68.49 71.23 69.95 67.75 67.58 66.93 69.73 70.16 72.05 74.25 73.86 73.85 75.13 74.89 75.09 73.12 71.44 74.02 75.68 75.65 75.61 75.06 75.29 75.26 74.22 74.27 74.64 74.79 75.24 75.83 75.88 76.05 75.58 75.30 73.46
48.44 48.94 49.14 49.91 50.58 50.66 50.05 50.37 51.35 53.16 52.83 55.21 56.69 61.91 68.39 69.66 69.04 67.99 67.97 67.17 69.46 69.28 69.93 72.53 73.47 72.79 73.83 74.69 73.61 70.34 69.44 72.20 74.64 75.12 73.89 74.99 75.37 75.49 75.12 74.87 74.61 74.82 74.54 74.22 74.30 74.49 74.36 74.24 74.05
49.21 49.40 50.58 50.80 51.28 50.01 49.95 51.05 50.40 51.32 52.11 55.16 58.08 65.59 68.54 69.47 68.81 68.36 68.43 68.20 70.06 68.41 69.64 70.77 72.99 72.53 73.67 73.29 69.89 68.48 68.29 68.21 68.06 68.70 70.17 73.47 74.66 75.01 75.06 75.32 75.40 74.91 74.48 74.25 74.70 74.08 74.59 74.85 75.17
50.03 49.28 49.85 49.87 50.08 50.10 51.22 49.97 49.89 50.45 51.99 56.06 63.43 66.71 67.67 69.23 69.56 69.37 69.64 70.36 70.77 67.48 68.21 70.93 70.53 70.85 69.45 67.32 67.01 67.27 66.02 65.84 67.36 68.05 68.07 69.25 68.92 69.49 70.63 71.95 72.84 73.81 74.61 74.51 74.55 74.61 74.57 74.62 74.83
49.93 50.14 49.78 50.35 50.07 50.19 50.32 49.80 51.05 51.99 53.04 54.11 60.68 64.07 66.57 67.97 68.76 69.04 68.40 68.99 69.62 66.15 67.95 66.88 66.64 67.04 66.21 65.68 65.75 64.66 64.84 66.15 65.46 64.90 64.51 65.16 65.36 66.13 66.41 67.66 70.61 72.37 73.48 73.64 74.27 74.27 74.52 74.37 74.40
50.26 48.85 50.89 50.23 49.63 49.39 50.89 47.77 48.75 52.93 53.82 53.72 54.42 54.31 53.77 60.91 68.69 68.67 68.42 67.22 67.15 64.47 65.20 64.34 64.40 64.72 64.59 63.76 63.62 64.09 63.49 63.58 63.70 63.16 63.98 64.59 65.19 66.15 66.51 66.82 67.81 68.71 70.98 73.39 73.64 73.94 74.49 74.11 74.08
48.91 48.21 46.62 49.57 49.99 49.99 49.57 44.83 50.03 53.02 53.56 53.43 54.36 55.29 56.03 54.26 58.76 67.26 64.11 63.68 63.08 63.69 63.19 63.42 62.58 62.62 63.09 63.20 62.67 63.13 62.88 62.93 62.87 62.57 62.86 63.78 64.00 65.25 65.99 66.06 66.63 68.37 71.08 70.76 72.19 72.78 72.95 73.25 73.43
47.57 44.55 45.37 46.28 49.96 49.13 49.61 45.42 50.13 52.70 53.33 53.08 54.52 55.67 56.71 57.36 57.55 58.09 61.53 62.60 61.98 62.94 62.56 62.48 62.56 61.90 62.34 62.82 62.43 62.97 63.57 62.43 62.50 62.27 62.13 63.19 63.75 64.11 64.10 63.67 64.72 66.59 67.98 69.68 69.20 69.97 70.87 71.82 72.46
43.98 44.22 44.75 45.23 48.04 48.41 47.77 46.84 50.01 51.82 52.61 52.55 53.76 55.27 56.41 56.92 57.37 59.58 60.60 61.28 61.65 61.84 62.15 62.02 61.77 61.95 62.21 62.01 62.09 61.39 61.93 61.89 62.50 62.30 62.19 62.54 64.03 63.40 63.09 62.62 63.21 63.81 64.75 66.04 67.04 69.08 69.42 70.11 71.09
46.16 45.60 44.71 45.90 47.69 46.73 46.68 46.79 48.34 50.95 51.78 52.01 52.94 54.29 55.57 56.23 58.36 59.44 60.13 60.67 60.38 61.20 61.54 61.48 61.92 62.26 61.51 61.25 60.63 61.38 60.65 61.81 62.24 63.20 61.89 62.48 63.70 62.46 63.24 61.91 61.88 62.31 62.22 63.46 64.44 65.77 68.04 68.62 70.36
46.45 44.75 44.23 45.86 47.46 46.86 45.94 45.36 48.13 49.79 49.99 51.05 51.75 53.15 54.59 56.18 57.67 58.49 59.58 60.36 60.60 61.11 61.73 61.86 61.79 62.22 61.88 62.51 62.81 62.56 62.31 61.96 62.25 62.54 62.60 62.36 63.09 63.51 62.96 62.41 61.45 62.07 60.93 61.46 61.57 63.21 63.58 65.01 68.72
45.32 44.46 44.04 43.98 45.76 46.03 45.97 43.52 45.25 48.34 50.39 51.50 52.04 53.53 54.40 54.57 55.38 56.94 58.05 59.20 60.74 61.21 61.79 62.15 62.35 63.15 63.30 63.20 62.82 62.58 61.74 61.26 60.51 60.59 61.28 61.75 61.82 63.08 62.59 62.18 62.08 61.50 60.98 58.91 60.31 61.04 61.28 60.83 64.38
43.26 45.84 45.21 44.57 43.64 41.15 43.85 38.98 42.76 45.89 47.47 49.62 50.95 52.04 52.35 53.51 55.42 56.55 57.28 58.24 59.11 59.16 60.41 60.51 61.26 62.38 63.05 63.77 62.15 61.87 60.24 58.97 60.35 60.25 61.33 62.01 61.05 62.24 62.47 61.85 61.76 61.92 61.11 60.29 59.39 59.87 60.52 60.80 59.38
44.34 45.65 44.03 43.58 43.28 41.76 41.39 39.93 41.58 45.47 44.40 46.79 49.81 51.57 52.74 53.02 53.29 53.82 54.56 55.75 56.93 57.87 58.45 59.14 59.89 60.89 61.18 61.27 61.53 59.69 59.20 58.87 59.43 59.37 60.64 62.08 61.97 61.34 61.91 61.81 61.33 60.99 60.69 60.74 59.29 58.96 58.99 59.11 59.22
45.61 44.45 42.76 41.94 41.96 37.25 40.00 40.18 39.90 43.05 44.77 46.87 49.40 51.04 52.17 52.91 53.46 54.15 54.67 55.02 55.48 56.60 56.67 56.80 57.21 58.07 59.62 59.57 58.73 58.20 57.72 58.02 57.52 58.59 58.21 58.92 60.35 60.12 61.29 61.12 61.41 61.12 60.15 59.29 58.43 58.64 58.52 58.05 58.41
46.35 42.72 37.33 35.49 36.07 34.43 40.24 38.93 40.66 44.58 46.62 47.69 48.51 48.78 49.98 51.54 51.96 52.42 52.69 52.87 53.47 53.90 54.87 55.61 55.90 56.14 57.66 56.85 56.60 56.25 56.40 57.16 57.03 57.53 57.10 58.15 58.53 59.29 60.13 60.95 60.67 59.71 59.68 58.60 58.25 57.89 57.57 57.48 56.82
42.18 42.26 37.78 29.33 32.13 34.82 40.41 35.98 41.32 45.69 46.82 47.71 49.08 49.21 49.46 50.12 51.04 51.14 51.67 52.22 52.59 53.16 54.20 54.34 54.90 55.12 55.98 55.81 55.53 55.51 55.47 54.03 55.38 56.88 57.37 57.52 58.46 59.31 61.32 60.56 60.29 59.60 58.56 57.58 57.64 56.15 56.08 56.88 56.56
42.00 40.16 41.78 37.21 36.29 34.57 38.81 39.84 43.87 45.77 45.75 47.06 47.52 48.16 48.80 49.23 49.91 50.43 51.36 52.04 52.52 52.71 53.23 53.59 53.68 54.00 54.85 55.30 54.95 54.59 55.03 55.42 54.66 56.37 57.00 56.79 58.92 58.97 59.51 60.03 59.40 58.46 57.40 56.72 56.31 54.69 55.35 56.01 56.16
44.68 44.22 38.30 39.59 30.92 28.64 34.90 36.13 38.04 42.38 43.82 44.98 45.70 46.70 47.73 49.04 49.71 50.32 50.84 51.38 52.12 52.57 52.82 52.99 53.36 53.16 53.86 54.33 53.68 53.29 54.42 54.44 54.60 54.54 53.96 55.50 57.66 58.97 58.73 58.44 57.78 56.90 55.88 55.36 55.22 54.20 54.77 54.61 54.55
42.49 40.96 39.84 39.35 38.31 31.91 29.70 35.30 44.72 43.92 44.94 45.25 46.66 47.45 48.16 48.37 48.71 49.50 50.33 51.09 51.45 51.98 51.60 51.79 51.93 52.28 52.26 52.87 52.65 52.29 52.01 52.43 52.81 52.32 52.84 53.70 56.12 56.54 56.39 55.98 55.46 54.51 53.93 54.49 54.13 54.07 53.82 53.43 54.14
43.90 41.87 40.78 37.47 32.91 36.90 35.16 34.51 45.83 46.28 46.34 46.26 46.33 47.42 47.55 48.21 48.69 49.41 49.69 49.83 50.36 50.83 50.90 50.94 51.24 51.27 51.72 51.35 50.59 49.77 49.76 50.18 50.39 51.09 51.56 52.86 53.52 55.06 54.61 54.36 53.75 53.01 52.85 53.50 53.09 52.62 52.69 52.39 52.51
MSLP
1012.36 1012.41 1012.53 1012.14 1011.67 1010.78 1010.90 1011.44 1012.04 1012.07 1012.49 1012.78 1012.85 1012.92 1013.28 1013.30 1013.11 1013.90 1014.07 1014.38 1014.38 1014.41 1014.84 1014.91 1015.35 1015.45 1015.31 1015.56 1015.75 1015.95 1016.18 1016.47 1016.59 1016.75 1016.93 1017.07 1017.35 1017.55 1017.70 1017.86 1017.99 1018.05 1018.07 1018.12 1018.24 1018.44 1018.56 1018.60 1018.70
1012.16 1012.25 1011.91 1010.93 1010.71 1010.11 1010.70 1011.52 1011.46 1011.83 1012.23 1012.74 1012.89 1012.87 1013.10 1013.06 1013.59 1013.72 1014.16 1014.36 1014.49 1014.20 1014.75 1014.36 1015.03 1015.30 1015.24 1015.61 1015.88 1016.04 1016.20 1016.43 1016.61 1016.82 1017.07 1017.31 1017.45 1017.70 1017.93 1018.12 1018.15 1018.24 1018.36 1018.36 1018.35 1018.48 1018.67 1018.84 1018.88
1011.90 1011.64 1010.82 1010.37 1010.43 1010.05 1010.52 1011.18 1011.73 1012.25 1012.62 1012.65 1012.75 1012.92 1013.09 1013.16 1013.75 1013.78 1014.09 1014.40 1014.44 1014.41 1014.81 1014.93 1014.93 1015.05 1015.11 1015.52 1015.83 1016.22 1016.34 1016.44 1016.69 1016.88 1017.05 1017.23 1017.62 1017.92 1018.06 1018.24 1018.28 1018.39 1018.43 1018.55 1018.62 1018.63 1018.79 1018.90 1019.01
1011.29 1011.25 1010.98 1010.18 1010.04 1010.46 1010.49 1011.00 1011.72 1012.17 1012.54 1012.54 1012.58 1012.56 1013.19 1013.21 1013.43 1014.11 1014.32 1014.42 1014.58 1014.81 1015.00 1015.12 1015.47 1015.29 1015.30 1015.67 1016.01 1016.35 1016.71 1016.89 1016.97 1017.09 1017.34 1017.55 1017.63 1017.84 1018.11 1018.23 1018.41 1018.42 1018.60 1018.66 1018.75 1018.83 1018.92 1019.02 1019.07
1011.20 1010.77 1010.31 1010.37 1010.52 1010.63 1011.11 1011.43 1011.66 1011.71 1011.81 1011.98 1012.23 1012.32 1012.46 1013.09 1013.76 1014.26 1014.39 1014.58 1014.75 1015.08 1015.17 1015.33 1015.46 1015.69 1015.35 1015.57 1016.09 1016.42 1016.88 1016.87 1017.25 1017.48 1017.63 1017.84 1017.96 1018.04 1018.21 1018.33 1018.41 1018.51 1018.65 1018.73 1018.81 1018.84 1018.90 1018.98 1019.12
1010.55 1010.83 1010.54 1010.48 1010.88 1010.85 1011.05 1011.69 1011.79 1011.91 1011.80 1012.05 1012.17 1012.09 1012.15 1013.09 1013.81 1014.34 1014.56 1014.66 1014.57 1014.82 1015.18 1015.24 1015.67 1015.32 1015.42 1016.06 1016.21 1016.69 1016.95 1017.14 1017.16 1017.55 1017.62 1018.05 1018.25 1018.29 1018.36 1018.56 1018.68 1018.66 1018.70 1018.72 1018.77 1018.74 1018.81 1018.86 1019.02
1010.32 1010.59 1010.99 1010.95 1010.98 1010.77 1011.01 1011.65 1011.48 1011.47 1011.56 1011.66 1011.92 1011.78 1012.27 1012.73 1013.71 1014.53 1014.58 1014.64 1014.53 1014.74 1015.04 1015.23 1015.56 1015.36 1015.63 1015.81 1016.26 1016.70 1017.05 1017.11 1017.42 1017.59 1017.76 1017.98 1018.09 1018.24 1018.31 1018.41 1018.55 1018.68 1018.69 1018.76 1018.79 1018.81 1018.75 1018.84 1018.88
1010.90 1010.84 1011.27 1011.27 1011.03 1010.68 1011.20 1011.46 1011.49 1011.42 1011.50 1011.75 1012.04 1011.72 1011.79 1012.62 1013.45 1014.24 1014.59 1014.78 1014.97 1014.90 1015.26 1015.47 1015.48 1015.25 1015.56 1015.99 1016.27 1016.56 1016.91 1017.14 1017.50 1017.52 1017.67 1017.83 1017.92 1017.96 1018.12 1018.15 1018.28 1018.46 1018.51 1018.60 1018.72 1018.71 1018.68 1018.72 1018.76
1011.24 1010.81 1010.95 1011.04 1010.87 1010.70 1011.17 1011.22 1011.55 1011.58 1011.53 1011.92 1012.26 1012.32 1012.40 1013.04 1013.54 1014.09 1014.53 1014.59 1014.81 1015.21 1015.33 1015.27 1015.34 1015.48 1015.45 1015.64 1016.10 1016.51 1016.65 1017.08 1017.30 1017.34 1017.48 1017.39 1017.17 1017.35 1017.49 1017.62 1017.89 1017.99 1018.10 1018.19 1018.31 1018.44 1018.53 1018.47 1018.48
1010.80 1010.85 1011.22 1011.40 1011.19 1010.95 1011.10 1011.30 1011.51 1011.58 1011.77 1011.98 1012.22 1012.65 1012.74 1013.13 1013.39 1013.83 1014.15 1014.12 1014.55 1014.68 1014.89 1015.33 1015.04 1015.40 1015.56 1015.66 1016.16 1016.36 1016.49 1016.62 1016.74 1016.81 1016.94 1016.92 1016.91 1016.97 1017.20 1017.35 1017.58 1017.62 1017.70 1017.71 1017.85 1017.98 1018.12 1018.24 1017.67
1011.29 1011.22 1011.62 1011.60 1011.42 1011.32 1011.28 1011.50 1011.84 1011.76 1011.88 1011.91 1011.89 1012.39 1012.78 1013.09 1013.42 1013.46 1013.62 1013.83 1013.93 1014.33 1014.49 1014.80 1015.19 1015.52 1015.61 1015.84 1016.20 1016.32 1016.73 1016.91 1016.92 1016.92 1016.87 1016.72 1016.67 1016.77 1016.69 1016.73 1016.86 1017.04 1017.23 1016.90 1016.85 1016.90 1017.01 1017.06 1017.22
1011.44 1011.84 1011.75 1011.70 1011.78 1011.60 1011.47 1011.83 1012.10 1012.50 1012.74 1012.47 1012.42 1012.95 1013.07 1013.07 1013.28 1013.34 1013.41 1013.67 1013.96 1014.11 1014.27 1014.75 1014.97 1015.61 1015.81 1015.96 1016.25 1016.66 1016.73 1016.75 1016.80 1017.01 1016.94 1016.78 1016.69 1016.67 1016.56 1016.19 1016.26 1016.54 1016.51 1016.42 1016.47 1016.16 1016.41 1016.66 1016.74
1011.68 1012.05 1012.21 1012.23 1012.02 1012.02 1012.10 1012.63 1013.00 1013.78 1013.84 1013.29 1013.26 1013.61 1013.55 1013.34 1013.40 1013.59 1013.83 1014.07 1014.35 1014.66 1015.13 1015.33 1015.59 1015.85 1016.08 1016.50 1016.80 1017.08 1017.22 1017.18 1017.13 1017.07 1017.16 1016.94 1016.88 1017.19 1016.88 1016.56 1016.48 1016.43 1016.20 1016.16 1015.95 1015.94 1015.97 1016.01 1016.01
1012.65 1012.55 1012.66 1012.60 1012.45 1012.72 1012.91 1013.97 1013.82 1014.98 1015.03 1014.27 1014.39 1014.43 1014.52 1014.43 1014.22 1014.09 1014.12 1014.20 1015.02 1016.23 1016.56 1017.06 1017.17 1017.48 1017.60 1017.52 1017.51 1017.55 1017.49 1017.54 1017.46 1017.51 1017.49 1017.35 1017.34 1017.31 1017.12 1016.89 1016.61 1016.39 1016.21 1015.95 1015.84 1015.50 1015.52 1015.61 1015.56
1012.86 1012.64 1012.64 1012.99 1013.12 1013.51 1013.66 1014.99 1016.52 1016.85 1016.17 1015.54 1015.57 1015.32 1014.85 1014.46 1014.68 1014.41 1014.83 1015.45 1016.03 1016.85 1017.30 1017.35 1017.61 1017.63 1017.75 1017.99 1018.06 1018.04 1017.71 1017.76 1017.71 1017.78 1017.84 1017.67 1017.49 1017.47 1017.30 1016.96 1016.72 1016.41 1016.27 1015.93 1015.66 1015.46 1015.45 1015.55 1015.31
1012.88 1013.13 1012.87 1013.53 1013.52 1013.75 1014.15 1016.03 1017.76 1017.58 1016.92 1016.75 1016.75 1016.41 1015.85 1015.13 1014.65 1014.77 1015.32 1015.89 1016.52 1016.99 1017.47 1017.85 1017.99 1018.14 1018.22 1018.34 1018.36 1018.39 1018.43 1018.05 1017.87 1017.96 1018.06 1017.97 1017.91 1017.86 1017.55 1017.02 1016.89 1016.74 1016.19 1016.24 1015.89 1015.61 1015.36 1015.12 1014.96
1013.18 1013.21 1013.50 1013.86 1014.22 1014.15 1014.33 1016.41 1018.39 1018.71 1018.17 1017.88 1017.56 1017.05 1016.60 1016.07 1015.77 1015.99 1015.99 1016.10 1016.58 1017.18 1017.62 1018.02 1018.30 1018.44 1018.52 1018.70 1018.62 1018.60 1018.57 1018.37 1018.31 1018.30 1018.31 1018.21 1018.18 1018.10 1017.94 1017.79 1017.40 1017.10 1016.54 1016.27 1016.17 1015.90 1015.79 1015.03 1014.66
1013.34 1013.61 1014.16 1014.23 1014.92 1015.24 1016.06 1017.49 1018.47 1019.04 1018.87 1018.64 1018.38 1018.01 1017.48 1017.12 1017.18 1017.13 1017.13 1017.12 1017.03 1017.37 1017.88 1018.29 1018.59 1018.84 1019.03 1018.93 1018.93 1018.75 1018.73 1018.67 1018.45 1018.49 1018.48 1018.25 1018.15 1018.12 1018.14 1017.97 1017.87 1017.58 1017.10 1016.72 1016.50 1016.09 1015.81 1015.48 1014.73
1014.07 1014.19 1014.45 1015.00 1015.62 1015.94 1017.06 1017.96 1018.77 1019.12 1018.93 1018.93 1018.94 1018.66 1018.24 1018.02 1017.97 1017.74 1017.63 1017.69 1017.70 1017.86 1018.26 1018.56 1018.86 1019.22 1019.17 1018.97 1018.98 1018.99 1018.85 1018.82 1018.56 1018.59 1018.76 1018.45 1018.22 1017.89 1017.87 1017.57 1017.64 1017.68 1017.48 1017.40 1017.15 1016.60 1015.82 1015.01 1014.68
1014.60 1014.75 1015.11 1015.48 1015.90 1016.23 1017.53 1018.29 1019.12 1019.43 1019.62 1019.78 1019.67 1019.42 1019.17 1018.79 1018.43 1018.45 1018.26 1018.12 1018.10 1018.39 1018.70 1018.92 1019.12 1019.32 1019.43 1019.36 1019.34 1019.21 1019.08 1018.79 1018.51 1018.43 1018.52 1018.32 1018.08 1017.97 1017.89 1017.59 1017.32 1017.45 1017.35 1017.42 1017.33 1017.03 1016.49 1015.92 1015.15
1015.51 1015.48 1015.71 1015.93 1016.28 1016.89 1017.52 1018.27 1018.97 1019.69 1019.85 1019.95 1020.02 1020.00 1019.82 1019.63 1019.35 1019.14 1019.08 1019.08 1018.99 1019.01 1019.07 1019.03 1018.95 1018.88 1018.93 1018.87 1018.70 1018.63 1018.58 1018.54 1018.45 1018.43 1018.37 1018.13 1018.01 1017.82 1017.81 1017.63 1017.34 1017.35 1017.35 1017.04 1017.12 1017.15 1016.92 1016.35 1015.80
1016.05 1016.43 1016.45 1016.44 1016.65 1016.70 1017.72 1017.46 1019.00 1019.57 1019.80 1019.96 1020.13 1020.14 1020.07 1019.99 1019.80 1019.62 1019.33 1019.20 1019.32 1019.61 1019.82 1019.75 1019.74 1019.71 1019.47 1019.48 1019.28 1019.32 1019.06 1018.60 1018.15 1018.26 1018.15 1018.04 1017.88 1017.75 1017.59 1017.32 1017.19 1017.15 1017.05 1017.04 1016.87 1016.81 1016.88 1016.71 1015.95
1016.93 1017.09 1017.20 1017.18 1017.02 1017.38 1017.69 1018.00 1018.71 1019.56 1019.76 1020.13 1020.37 1020.48 1020.55 1020.58 1020.55 1020.25 1020.07 1019.80 1019.60 1019.50 1019.38 1019.32 1019.27 1019.29 1019.33 1019.24 1019.30 1019.13 1018.78 1018.56 1018.29 1018.16 1017.91 1017.62 1017.36 1017.35 1016.98 1016.88 1016.74 1016.86 1016.91 1016.89 1016.83 1016.81 1016.70 1016.50 1016.24
1017.56 1017.55 1017.82 1017.96 1017.75 1017.43 1017.97 1018.40 1018.44 1019.16 1019.82 1020.31 1020.64 1020.80 1020.92 1020.88 1020.83 1020.77 1020.64 1020.46 1020.30 1020.06 1019.91 1019.79 1019.70 1019.64 1019.36 1019.29 1019.29 1019.35 1019.03 1018.86 1018.35 1017.86 1017.45 1016.51 1016.23 1016.26 1016.29 1016.32 1016.30 1016.40 1016.46 1016.62 1016.50 1016.66 1016.55 1016.51 1016.27
1017.80 1017.96 1017.93 1018.02 1017.97 1017.91 1018.67 1018.83 1018.78 1019.80 1020.35 1020.66 1020.94 1021.24 1021.35 1021.30 1021.10 1020.83 1020.64 1020.44 1020.35 1020.29 1020.26 1020.09 1019.81 1019.55 1019.29 1019.08 1018.88 1018.75 1018.75 1018.60 1018.04 1017.45 1016.75 1016.08 1015.46 1015.39 1015.37 1015.69 1015.87 1015.87 1015.94 1016.02 1016.24 1016.31 1016.15 1016.21 1016.01
1019.03 1019.22 1019.28 1019.19 1019.13 1018.86 1019.08 1018.76 1019.32 1020.39 1020.96 1021.25 1021.46 1021.59 1021.60 1021.42 1021.27 1021.07 1020.89 1020.70 1020.34 1020.23 1020.11 1019.87 1019.54 1019.27 1019.03 1018.77 1018.62 1018.56 1018.34 1017.93 1017.52 1016.97 1016.60 1015.92 1015.30 1014.92 1014.80 1014.95 1015.16 1015.36 1015.61 1015.56 1015.75 1015.86 1015.81 1015.66 1015.56
1019.62 1020.22 1021.04 1020.68 1020.97 1020.28 1019.18 1019.75 1020.15 1020.65 1020.97 1021.29 1021.55 1021.68 1021.53 1021.50 1021.41 1021.08 1020.81 1020.62 1020.48 1020.20 1019.88 1019.50 1019.05 1018.73 1018.56 1018.23 1018.07 1017.77 1017.51 1017.22 1016.89 1016.58 1016.22 1015.51 1015.13 1014.79 1014.75 1014.68 1014.78 1015.03 1015.32 1015.57 1015.50 1015.52 1015.63 1015.56 1015.24
1020.04 1021.14 1021.33 1021.41 1021.14 1020.18 1019.41 1019.55 1019.18 1020.40 1020.85 1021.45 1021.63 1021.65 1021.68 1021.50 1021.08 1020.67 1020.41 1020.16 1020.00 1019.76 1019.42 1019.00 1018.64 1018.17 1017.80 1017.62 1017.43 1017.00 1016.78 1016.56 1016.16 1015.84 1015.53 1015.31 1014.85 1014.53 1014.38 1014.40 1014.57 1014.60 1014.84 1014.93 1015.04 1015.11 1015.22 1015.25 1014.89
1020.93 1021.16 1021.87 1022.30 1022.19 1021.57 1020.27 1019.29 1019.93 1020.38 1021.06 1021.38 1021.58 1021.73 1021.54 1021.11 1020.64 1020.22 1019.98 1019.81 1019.60 1019.28 1018.85 1018.49 1018.13 1017.68 1017.35 1017.15 1016.89 1016.65 1016.30 1015.96 1015.50 1015.17 1014.82 1014.58 1014.24 1014.01 1013.83 1013.81 1013.86 1013.99 1014.06 1014.18 1014.38 1014.50 1014.58 1014.37 1014.19
1021.43 1021.50 1021.92 1022.25 1022.40 1022.26 1021.94 1020.13 1020.39 1020.68 1021.31 1021.78 1021.83 1021.70 1021.42 1021.08 1020.54 1020.12 1019.65 1019.22 1018.85 1018.59 1018.25 1017.87 1017.50 1017.24 1016.86 1016.84 1016.61 1016.39 1016.05 1015.57 1015.10 1014.52 1014.08 1013.78 1013.36 1013.20 1013.11 1013.08 1013.18 1013.28 1013.34 1013.49 1013.52 1013.52 1013.53 1013.47 1013.23
Wind_Speed
3 6 4 4 1 4 4 5 1 5 4 2 4 1 1 3 2 4 4 5 8 10 8 12 10 10 11 11 11 12 12 12 13 14 14 13 12 11 10 10 9 9 11 11 11 10 9 10 10
5 4 3 1 4 7 5 1 5 4 4 5 2 3 2 1 1 2 4 6 5 9 7 12 13 12 13 11 10 10 12 12 13 13 12 11 10 10 9 8 8 9 9 9 10 10 9 8 8
6 2 1 2 3 5 6 3 2 3 6 4 4 1 1 1 1 1 1 5 7 7 8 9 13 13 14 13 12 9 10 11 12 12 12 12 10 9 8 7 7 8 8 7 7 8 8 7 6
3 3 3 3 10 3 4 9 6 9 5 4 2 2 2 1 3 4 6 5 5 7 6 12 10 11 13 12 11 9 8 7 9 9 9 9 10 9 8 7 6 6 7 7 6 6 6 6 5
2 0 3 7 4 1 2 3 11 8 4 6 8 5 2 3 4 9 8 4 7 6 5 8 9 9 12 13 11 10 7 8 6 6 6 6 7 7 7 6 6 6 6 6 6 6 5 6 5
3 1 6 7 5 3 0 6 3 3 1 5 4 6 6 4 9 8 8 6 6 9 5 8 9 14 12 10 10 8 7 7 7 5 5 3 3 3 4 4 4 5 5 6 6 7 6 6 6
4 3 3 4 5 5 0 6 4 4 5 6 4 6 1 4 11 6 7 8 7 8 7 7 7 11 12 12 11 9 7 7 6 5 4 4 3 3 4 4 4 5 6 6 6 6 6 7 7
3 3 6 2 7 5 3 2 5 6 3 4 0 1 2 5 11 7 4 6 6 8 9 9 8 9 9 8 10 9 7 6 5 6 6 5 4 4 5 5 7 7 6 7 7 8 8 8 8
1 3 6 4 9 5 1 5 3 3 5 1 2 2 4 8 10 6 3 6 5 6 6 6 6 7 8 9 8 8 6 4 6 7 6 7 4 5 5 4 6 8 9 8 9 9 9 8 9
3 4 3 2 1 2 1 3 2 4 3 2 3 1 1 10 8 6 6 6 5 4 6 4 7 7 7 6 7 5 4 3 5 5 5 4 5 5 5 6 8 9 10 10 10 10 10 10 8
2 5 3 2 1 1 2 3 1 7 4 5 8 7 5 8 7 7 6 4 4 7 6 8 7 6 7 6 4 3 2 2 1 1 2 4 4 4 4 4 4 5 8 7 7 7 7 7 6
6 2 2 1 2 2 3 3 5 6 10 11 6 3 7 12 12 11 7 7 6 8 9 9 8 7 5 4 4 3 3 3 3 3 3 2 2 3 4 4 4 5 5 6 6 5 6 8 8
6 3 5 3 4 3 4 10 6 16 21 9 2 3 7 11 12 10 8 8 7 8 3 6 5 5 6 6 4 4 4 4 5 5 7 5 4 4 4 4 4 4 5 6 6 6 6 7 8
5 10 7 6 5 6 9 13 5 15 22 6 7 7 7 9 11 11 11 11 6 4 5 6 6 6 6 5 6 5 5 5 5 5 6 7 4 3 4 4 4 4 4 5 6 7 6 6 7
6 10 12 13 7 5 4 10 13 16 11 13 12 11 13 13 12 15 10 7 5 5 6 7 6 6 6 6 5 4 4 5 5 5 7 7 6 5 4 4 4 4 5 6 6 6 7 7 7
4 2 3 9 9 5 6 6 12 16 14 14 12 12 12 14 14 12 6 1 6 7 7 6 5 5 5 5 4 3 3 4 5 5 5 7 7 7 4 4 5 7 5 5 5 6 6 7 7
4 6 6 2 9 3 6 4 11 11 10 13 13 14 13 13 13 13 2 6 8 8 7 6 5 5 5 4 4 4 5 5 4 4 4 5 5 6 6 6 6 8 6 5 5 5 6 7 7
3 5 4 3 7 10 11 7 8 11 11 13 12 12 14 15 15 11 8 7 10 10 8 7 5 6 5 4 3 4 3 3 4 4 3 4 3 5 3 4 6 7 7 7 8 7 5 7 8
5 5 4 2 3 3 8 8 9 10 14 15 13 12 12 13 10 9 9 8 10 10 8 7 5 6 5 3 3 2 2 1 2 1 3 3 3 4 4 4 5 5 6 7 9 9 8 7 4
4 4 3 1 3 1 4 8 8 11 11 11 11 11 11 11 12 11 9 8 9 9 7 6 5 4 3 2 1 2 2 2 3 2 4 4 2 1 1 3 4 4 3 5 7 8 7 6 6
5 3 1 2 2 5 8 5 5 5 6 8 11 10 11 11 12 12 11 10 8 7 4 2 6 8 9 9 6 5 4 4 4 5 5 5 5 4 3 1 3 3 3 4 4 5 6 6 7
2 2 3 5 4 6 2 4 5 4 5 7 8 9 10 11 10 11 12 13 12 9 7 7 8 9 7 7 7 8 8 8 7 7 6 6 7 7 6 3 0 1 2 3 3 3 4 5 8
3 3 2 3 6 3 3 5 7 6 3 3 5 7 9 10 11 12 13 13 12 13 12 10 10 9 9 9 7 8 9 9 9 8 10 10 9 9 9 7 5 3 2 2 3 4 5 4 6
3 1 3 2 2 5 4 4 7 5 2 2 2 6 8 9 9 9 9 10 11 11 11 11 11 10 9 7 7 8 10 12 11 11 11 10 8 8 9 9 7 5 4 3 4 5 5 6 7
7 4 2 2 3 3 3 7 4 3 2 2 1 4 5 7 7 8 10 10 11 12 12 11 11 12 9 8 10 11 12 11 12 12 11 12 10 9 10 11 9 7 5 3 4 6 7 7 7
5 4 2 5 3 7 5 5 4 4 4 3 3 2 3 6 8 9 10 11 13 15 15 16 14 13 12 9 10 11 12 10 10 10 10 10 11 10 10 10 10 8 6 5 5 6 7 9 8
3 3 2 0 1 4 1 1 6 6 3 4 4 4 8 11 12 13 14 13 14 14 15 16 16 15 14 14 12 13 13 14 14 13 12 10 11 10 11 11 10 9 7 6 6 7 9 10 10
4 5 1 2 4 6 3 4 7 8 4 2 4 6 9 12 14 14 15 14 14 14 14 15 16 17 16 15 15 14 15 16 15 14 15 16 13 11 10 10 10 9 8 8 7 7 8 10 10
3 3 4 1 2 4 7 2 2 3 3 5 10 9 14 16 17 17 16 15 15 16 18 18 18 18 16 15 16 17 17 19 17 16 17 16 16 14 12 12 12 11 10 9 9 10 11 12 12
1 2 3 1 2 5 6 8 1 4 3 5 8 12 16 16 18 18 18 18 18 19 19 19 19 18 16 17 18 19 19 18 18 17 18 17 17 15 13 13 12 13 13 12 12 13 12 13 14
Wind_Direction
141 142 160 186 108 86 80 73 34 153 190 186 152 237 343 237 304 50 106 161 164 151 165 146 143 131 124 121 115 111 113 118 122 124 126 127 128 129 130 133 129 126 128 130 130 130 130 131 131
137 135 194 110 86 113 87 26 171 167 134 143 189 292 243 313 43 97 153 194 187 149 167 152 144 139 130 129 126 122 121 121 121 123 124 124 128 133 137 137 134 136 137 138 139 137 137 137 137
143 241 271 71 144 144 122 191 126 125 146 176 182 266 340 314 130 94 160 147 173 153 164 149 141 141 134 136 132 128 128 130 130 131 133 135 137 138 139 140 142 147 148 149 148 144 146 146 145
152 170 118 135 117 125 97 144 144 141 154 182 171 221 216 159 133 45 93 118 158 163 169 137 132 131 129 130 131 132 125 122 125 127 129 135 140 144 146 149 156 159 164 163 163 157 159 162 163
62 134 90 119 110 288 66 117 170 173 162 171 175 161 193 167 92 78 54 153 152 126 118 117 119 122 125 124 129 129 135 120 109 114 122 135 149 155 162 165 171 177 184 181 179 185 187 183 191
98 344 127 151 148 287 123 137 190 239 216 165 193 169 139 88 120 97 86 76 126 110 106 121 131 127 108 114 117 118 122 133 122 140 140 160 176 182 187 206 213 205 204 209 212 203 211 216 216
92 86 118 147 157 212 289 144 174 241 167 183 127 179 119 210 136 105 80 65 104 117 108 98 121 111 118 110 111 120 131 124 140 144 152 178 192 219 235 239 249 248 236 231 233 239 238 236 243
99 102 138 148 182 193 103 113 151 183 124 100 16 274 134 109 145 120 98 85 87 137 145 138 136 124 122 117 125 121 121 128 153 159 170 181 198 212 232 251 233 257 256 254 249 242 243 249 250
162 95 117 132 175 154 118 135 168 46 146 13 340 287 344 126 141 152 139 159 120 120 109 117 115 112 113 117 105 118 120 152 171 179 184 186 205 212 219 239 255 251 255 256 255 256 251 244 246
37 97 114 143 149 181 74 64 121 175 147 253 253 154 47 147 155 185 180 175 155 140 118 132 127 122 111 110 124 125 112 192 186 186 191 212 207 214 236 234 235 245 249 249 252 256 259 251 258
53 87 147 113 132 125 66 94 98 142 198 207 198 171 172 165 184 227 198 182 194 158 159 178 153 147 144 145 143 106 118 111 146 166 273 235 224 219 217 233 243 252 233 249 231 244 248 262 266
104 84 40 99 146 204 139 97 93 25 335 307 231 115 179 190 200 217 225 213 205 195 178 180 170 156 143 134 136 132 129 107 109 93 51 50 285 254 257 245 240 239 246 254 246 248 256 258 257
80 48 43 356 11 46 66 48 58 30 349 341 116 183 204 208 217 224 240 250 222 208 171 181 168 138 127 123 109 107 101 83 85 72 54 53 45 10 337 330 297 285 268 256 255 253 252 258 258
77 82 55 13 343 47 78 39 32 358 335 7 9 330 293 267 252 253 246 242 245 33 60 67 76 58 52 66 102 108 105 106 86 72 63 68 58 42 22 6 342 307 295 278 267 264 259 255 261
135 94 59 27 348 77 141 50 11 344 359 34 13 349 329 271 251 257 280 303 343 75 89 73 73 81 94 99 83 71 85 93 92 75 55 54 42 31 12 9 344 340 322 296 275 264 260 254 251
107 82 101 18 359 57 208 103 30 358 9 31 18 0 341 332 275 256 262 33 85 98 91 82 89 96 91 80 82 93 80 85 76 61 46 38 34 23 14 15 5 349 332 338 314 295 272 260 254
40 109 104 107 26 329 23 85 24 27 35 41 24 11 8 357 8 351 259 124 102 109 109 91 83 82 83 102 102 84 68 61 70 64 59 58 53 43 27 18 10 355 347 348 331 300 278 280 267
97 116 90 96 20 76 79 74 33 38 62 55 37 27 21 21 20 25 49 77 106 103 96 86 68 48 31 29 51 67 65 62 54 44 34 56 81 80 57 51 21 2 1 358 350 326 297 283 288
111 108 114 153 59 98 92 89 45 33 45 47 47 29 23 25 23 47 73 86 95 90 89 73 73 39 23 13 360 13 18 24 61 31 338 359 27 56 53 59 46 26 23 11 355 342 331 304 296
95 108 58 246 29 157 160 96 63 46 46 43 41 40 29 25 26 36 51 81 96 103 99 99 92 80 72 112 187 244 258 249 282 254 247 248 256 294 88 59 55 45 36 30 14 5 339 311 332
60 89 162 284 10 86 150 156 125 70 58 55 51 53 48 36 23 16 19 22 19 36 41 125 164 175 185 190 192 198 217 217 224 230 249 261 274 257 266 56 64 53 6 30 23 10 360 325 315
230 344 290 279 249 282 241 289 169 123 82 54 40 39 36 30 33 30 23 19 22 23 3 353 357 351 356 353 344 342 320 308 309 298 283 256 238 243 235 225 193 36 5 20 26 21 346 323 311
52 342 329 304 244 273 156 249 131 193 145 72 33 34 33 30 20 18 16 12 12 9 5 358 349 341 337 337 329 319 310 303 300 295 285 269 248 235 225 213 205 213 265 332 350 353 345 320 310
309 204 83 90 196 237 123 321 171 186 174 153 40 27 18 14 15 15 21 15 7 2 357 352 350 336 338 336 332 319 315 306 297 288 280 272 263 238 228 221 212 213 219 270 322 333 326 317 302
20 347 330 204 222 314 138 277 16 145 82 27 42 39 28 23 13 2 358 357 348 340 331 318 317 309 309 320 332 335 323 310 300 302 299 294 277 254 231 218 214 213 219 250 305 315 313 310 301
39 359 309 294 284 313 278 255 109 107 81 73 89 42 19 357 349 335 327 323 328 323 314 316 300 291 281 286 304 313 316 312 299 294 293 288 281 268 243 216 214 215 229 255 290 297 302 305 297
90 73 15 254 228 259 239 170 197 175 91 53 23 335 344 345 327 318 317 316 313 314 308 309 299 295 283 281 298 306 310 310 298 289 293 291 287 274 253 233 219 214 227 258 278 286 294 298 291
60 118 192 42 305 293 228 266 289 201 231 265 296 318 328 323 320 319 317 317 314 313 307 305 296 293 285 284 298 303 305 303 291 283 287 288 281 262 253 237 236 242 258 268 273 273 269 277 283
146 127 77 351 263 280 305 298 137 264 191 338 333 323 322 324 322 319 318 311 308 306 307 307 303 298 293 288 301 303 303 298 289 288 288 281 273 259 245 251 258 266 274 272 269 271 275 273 277
258 146 119 168 203 246 285 289 28 168 148 330 308 319 322 318 317 314 312 312 314 310 309 306 304 297 298 301 301 302 297 292 288 287 287 285 272 263 260 257 261 272 276 273 269 272 275 274 278